Time,TemperatureF,DewpointF,PressureIn,WindDirection,WindDirectionDegrees,WindSpeedMPH,WindSpeedGustMPH,Humidity,HourlyPrecipIn,Conditions,Clouds,dailyrainin,SoftwareType,DateUTC
2013-10-24 06:08:00,31.2,23.2,30.21,North,356,2.0,2.0,72,0.00,,OVC045,0.00,VWS V14.01,2013-10-24 11:08:00,
2013-10-24 06:13:00,31.4,23.1,30.22,North,349,5.0,6.0,71,0.00,,OVC044,0.00,VWS V14.01,2013-10-24 11:13:00,
2013-10-24 06:18:00,31.6,23.0,30.22,NE,50,3.0,9.0,70,0.00,,OVC044,0.00,VWS V14.01,2013-10-24 11:18:00,
2013-10-24 06:23:00,31.6,23.3,30.22,NNW,344,1.0,9.0,71,0.00,,OVC044,0.00,VWS V14.01,2013-10-24 11:23:00,
2013-10-24 06:28:00,31.7,23.4,30.22,NNE,29,3.0,9.0,71,0.00,,OVC044,0.00,VWS V14.01,2013-10-24 11:28:00,
2013-10-24 06:30:00,31.7,23.0,30.22,NNW,334,3.0,9.0,70,0.00,,BKN048,0.00,VWS V14.01,2013-10-24 11:30:00,
2013-10-24 06:33:00,31.7,23.0,30.22,NNW,333,3.0,5.0,70,0.00,,OVC044,0.00,VWS V14.01,2013-10-24 11:33:00,
2013-10-24 06:38:00,31.8,23.1,30.22,NE,51,0.0,5.0,70,0.00,,OVC044,0.00,VWS V14.01,2013-10-24 11:38:00,
2013-10-24 06:43:00,31.7,23.7,30.23,NNE,30,0.0,5.0,72,0.00,,OVC044,0.00,VWS V14.01,2013-10-24 11:43:00,
2013-10-24 06:48:00,31.4,23.4,30.23,NNE,16,2.0,5.0,72,0.00,,OVC044,0.00,VWS V14.01,2013-10-24 11:48:00,
2013-10-24 06:53:00,31.0,23.4,30.23,NE,49,1.0,5.0,73,0.00,,OVC044,0.00,VWS V14.01,2013-10-24 11:53:00,
2013-10-24 06:58:00,30.8,23.5,30.23,North,9,1.0,5.0,74,0.00,,OVC044,0.00,VWS V14.01,2013-10-24 11:58:00,
2013-10-24 07:00:00,30.6,23.3,30.23,NNW,342,2.0,5.0,74,0.00,,BKN048,0.00,VWS V14.01,2013-10-24 12:00:00,
2013-10-24 07:03:00,30.5,23.2,30.23,North,4,2.0,4.0,74,0.00,,OVC040,0.00,VWS V14.01,2013-10-24 12:03:00,
2013-10-24 07:08:00,30.3,23.0,30.23,NW,321,1.0,4.0,74,0.00,,OVC040,0.00,VWS V14.01,2013-10-24 12:08:00,
2013-10-24 07:13:00,30.1,23.1,30.24,NW,324,2.0,4.0,75,0.00,,OVC040,0.00,VWS V14.01,2013-10-24 12:13:00,
2013-10-24 07:18:00,29.9,23.0,30.24,NW,308,0.0,4.0,75,0.00,,OVC040,0.00,VWS V14.01,2013-10-24 12:18:00,
2013-10-24 07:23:00,29.7,22.8,30.24,NE,42,1.0,4.0,75,0.00,,OVC040,0.00,VWS V14.01,2013-10-24 12:23:00,
2013-10-24 07:28:00,29.5,22.9,30.24,WNW,291,1.0,4.0,76,0.00,,OVC040,0.00,VWS V14.01,2013-10-24 12:28:00,
2013-10-24 07:30:00,29.4,22.8,30.24,WNW,289,0.0,4.0,76,0.00,,BKN048,0.00,VWS V14.01,2013-10-24 12:30:00,
2013-10-24 07:33:00,29.2,22.9,30.24,NW,326,0.0,2.0,77,0.00,,OVC040,0.00,VWS V14.01,2013-10-24 12:33:00,
2013-10-24 07:38:00,28.9,22.9,30.24,NE,34,2.0,2.0,78,0.00,,OVC040,0.00,VWS V14.01,2013-10-24 12:38:00,
2013-10-24 07:43:00,28.8,22.8,30.24,WNW,290,1.0,4.0,78,0.00,,OVC040,0.00,VWS V14.01,2013-10-24 12:43:00,
2013-10-24 07:48:00,28.6,22.6,30.24,NNW,336,1.0,4.0,78,0.00,,OVC040,0.00,VWS V14.01,2013-10-24 12:48:00,
2013-10-24 07:53:00,28.4,22.7,30.24,NW,313,1.0,4.0,79,0.00,,OVC040,0.00,VWS V14.01,2013-10-24 12:53:00,
2013-10-24 07:58:00,28.2,22.5,30.24,NW,319,0.0,4.0,79,0.00,,OVC040,0.00,VWS V14.01,2013-10-24 12:58:00,
2013-10-24 08:00:00,28.2,22.5,30.24,West,271,1.0,4.0,79,0.00,,BKN048,0.00,VWS V14.01,2013-10-24 13:00:00,
2013-10-24 08:03:00,28.2,22.5,30.25,NE,42,0.0,2.0,79,0.00,,BKN044,0.00,VWS V14.01,2013-10-24 13:03:00,
2013-10-24 08:08:00,28.3,22.9,30.25,WNW,301,1.0,4.0,80,0.00,,BKN044,0.00,VWS V14.01,2013-10-24 13:08:00,
2013-10-24 08:13:00,28.3,23.2,30.25,NNW,329,1.0,4.0,81,0.00,,BKN044,0.00,VWS V14.01,2013-10-24 13:13:00,
2013-10-24 08:18:00,28.6,23.8,30.25,NW,304,1.0,4.0,82,0.00,,BKN044,0.00,VWS V14.01,2013-10-24 13:18:00,
2013-10-24 08:23:00,28.9,24.1,30.25,WNW,303,0.0,4.0,82,0.00,,BKN044,0.00,VWS V14.01,2013-10-24 13:23:00,
2013-10-24 08:28:00,29.3,24.5,30.26,NW,316,2.0,4.0,82,0.00,,BKN044,0.00,VWS V14.01,2013-10-24 13:28:00,
2013-10-24 08:30:00,29.4,24.9,30.26,NW,325,1.0,5.0,83,0.00,,BKN048,0.00,VWS V14.01,2013-10-24 13:30:00,
2013-10-24 08:33:00,29.7,25.2,30.26,NW,307,1.0,3.0,83,0.00,,BKN044,0.00,VWS V14.01,2013-10-24 13:33:00,
2013-10-24 08:38:00,30.1,25.6,30.26,North,356,0.0,5.0,83,0.00,,BKN044,0.00,VWS V14.01,2013-10-24 13:38:00,
2013-10-24 08:43:00,30.3,25.5,30.26,NW,316,1.0,5.0,82,0.00,,BKN044,0.00,VWS V14.01,2013-10-24 13:43:00,
2013-10-24 08:48:00,30.8,26.3,30.26,North,354,0.0,5.0,83,0.00,,BKN044,0.00,VWS V14.01,2013-10-24 13:48:00,
2013-10-24 08:53:00,31.2,26.4,30.26,NNW,338,2.0,5.0,82,0.00,,BKN044,0.00,VWS V14.01,2013-10-24 13:53:00,
2013-10-24 08:58:00,31.3,26.5,30.26,WNW,300,2.0,5.0,82,0.00,,BKN044,0.00,VWS V14.01,2013-10-24 13:58:00,
2013-10-24 09:00:00,31.3,26.5,30.26,NW,325,2.0,5.0,82,0.00,,BKN048,0.00,VWS V14.01,2013-10-24 14:00:00,
2013-10-24 09:03:00,31.4,26.8,30.26,NNW,340,0.0,4.0,83,0.00,,CLR,0.00,VWS V14.01,2013-10-24 14:03:00,
2013-10-24 09:08:00,31.8,27.2,30.27,NE,46,2.0,4.0,83,0.00,,CLR,0.00,VWS V14.01,2013-10-24 14:08:00,
2013-10-24 09:13:00,32.1,27.2,30.27,NNW,328,2.0,4.0,82,0.00,,CLR,0.00,VWS V14.01,2013-10-24 14:13:00,
2013-10-24 09:18:00,32.2,27.3,30.27,NW,321,0.0,4.0,82,0.00,,CLR,0.00,VWS V14.01,2013-10-24 14:18:00,
2013-10-24 09:23:00,32.3,27.7,30.27,NNW,345,1.0,4.0,83,0.00,,CLR,0.00,VWS V14.01,2013-10-24 14:23:00,
2013-10-24 09:28:00,32.5,27.9,30.28,NW,322,3.0,4.0,83,0.00,,CLR,0.00,VWS V14.01,2013-10-24 14:28:00,
2013-10-24 09:30:00,32.6,28.0,30.28,NW,322,1.0,4.0,83,0.00,,BKN048,0.00,VWS V14.01,2013-10-24 14:30:00,
2013-10-24 09:33:00,32.8,28.2,30.28,NNE,25,0.0,3.0,83,0.00,,CLR,0.00,VWS V14.01,2013-10-24 14:33:00,
2013-10-24 09:38:00,33.6,29.0,30.28,WSW,245,1.0,3.0,83,0.00,,CLR,0.00,VWS V14.01,2013-10-24 14:38:00,
2013-10-24 09:43:00,34.1,28.9,30.28,ENE,65,2.0,6.0,81,0.00,,CLR,0.00,VWS V14.01,2013-10-24 14:43:00,
2013-10-24 09:48:00,34.3,29.1,30.28,West,277,1.0,6.0,81,0.00,,CLR,0.00,VWS V14.01,2013-10-24 14:48:00,
2013-10-24 09:53:00,34.6,29.1,30.28,NW,319,2.0,6.0,80,0.00,,CLR,0.00,VWS V14.01,2013-10-24 14:53:00,
2013-10-24 09:58:00,34.7,28.5,30.28,NNE,23,4.0,6.0,78,0.00,,CLR,0.00,VWS V14.01,2013-10-24 14:58:00,
2013-10-24 10:00:00,34.8,28.6,30.28,North,356,2.0,6.0,78,0.00,,BKN048,0.00,VWS V14.01,2013-10-24 15:00:00,
2013-10-24 10:03:00,35.0,28.9,30.28,NE,46,2.0,3.0,78,0.00,,BKN055,0.00,VWS V14.01,2013-10-24 15:03:00,
2013-10-24 10:08:00,35.5,29.0,30.29,NNW,327,0.0,5.0,77,0.00,,BKN055,0.00,VWS V14.01,2013-10-24 15:08:00,
2013-10-24 10:13:00,35.6,28.5,30.29,North,356,2.0,5.0,75,0.00,,BKN055,0.00,VWS V14.01,2013-10-24 15:13:00,
2013-10-24 10:18:00,35.8,29.0,30.29,NW,309,0.0,5.0,76,0.00,,BKN055,0.00,VWS V14.01,2013-10-24 15:18:00,
2013-10-24 10:23:00,36.4,29.6,30.29,North,352,3.0,5.0,76,0.00,,BKN055,0.00,VWS V14.01,2013-10-24 15:23:00,
2013-10-24 10:28:00,36.7,29.2,30.29,NNW,342,2.0,5.0,74,0.00,,BKN055,0.00,VWS V14.01,2013-10-24 15:28:00,
2013-10-24 10:30:00,36.8,29.3,30.29,West,266,1.0,5.0,74,0.00,,BKN048,0.00,VWS V14.01,2013-10-24 15:30:00,
2013-10-24 10:33:00,37.2,30.4,30.29,NNE,23,2.0,2.0,76,0.00,,BKN055,0.00,VWS V14.01,2013-10-24 15:33:00,
2013-10-24 10:38:00,37.7,29.8,30.29,NE,43,1.0,5.0,73,0.00,,BKN055,0.00,VWS V14.01,2013-10-24 15:38:00,
2013-10-24 10:43:00,37.8,30.3,30.29,North,11,2.0,5.0,74,0.00,,BKN055,0.00,VWS V14.01,2013-10-24 15:43:00,
2013-10-24 10:48:00,37.3,29.8,30.29,NE,39,1.0,5.0,74,0.00,,BKN055,0.00,VWS V14.01,2013-10-24 15:48:00,
2013-10-24 10:53:00,36.9,29.7,30.29,NNW,327,3.0,5.0,75,0.00,,BKN055,0.00,VWS V14.01,2013-10-24 15:53:00,
2013-10-24 10:58:00,36.5,30.0,30.29,NNE,32,2.0,5.0,77,0.00,,BKN055,0.00,VWS V14.01,2013-10-24 15:58:00,
2013-10-24 11:00:00,36.5,30.3,30.29,NW,304,3.0,5.0,78,0.00,,BKN048,0.00,VWS V14.01,2013-10-24 16:00:00,
2013-10-24 11:03:00,36.9,31.0,30.29,NW,326,1.0,5.0,79,0.00,,BKN050,0.00,VWS V14.01,2013-10-24 16:03:00,
2013-10-24 11:08:00,37.3,30.8,30.29,NNE,23,3.0,5.0,77,0.00,,BKN050,0.00,VWS V14.01,2013-10-24 16:08:00,
2013-10-24 11:13:00,37.4,30.5,30.30,North,9,2.0,5.0,76,0.00,,BKN050,0.00,VWS V14.01,2013-10-24 16:13:00,
2013-10-24 11:18:00,37.5,31.0,30.30,WNW,291,2.0,5.0,77,0.00,,BKN050,0.00,VWS V14.01,2013-10-24 16:18:00,
2013-10-24 11:23:00,38.2,30.7,30.30,NW,305,2.0,6.0,74,0.00,,BKN050,0.00,VWS V14.01,2013-10-24 16:23:00,
2013-10-24 11:28:00,37.6,29.7,30.30,NNE,20,2.0,6.0,73,0.00,,BKN050,0.00,VWS V14.01,2013-10-24 16:28:00,
2013-10-24 11:30:00,37.4,29.5,30.30,NW,321,2.0,6.0,73,0.00,,BKN048,0.00,VWS V14.01,2013-10-24 16:30:00,
2013-10-24 11:33:00,37.2,29.7,30.30,NNE,16,3.0,5.0,74,0.00,,BKN050,0.00,VWS V14.01,2013-10-24 16:33:00,
2013-10-24 11:38:00,37.5,30.3,30.30,North,6,0.0,5.0,75,0.00,,BKN050,0.00,VWS V14.01,2013-10-24 16:38:00,
2013-10-24 11:43:00,38.1,29.9,30.30,NNW,345,2.0,6.0,72,0.00,,OVC044,0.00,VWS V14.01,2013-10-24 16:43:00,
2013-10-24 11:48:00,38.0,30.1,30.30,NNW,335,3.0,6.0,73,0.00,,OVC044,0.00,VWS V14.01,2013-10-24 16:48:00,
2013-10-24 11:53:00,38.0,29.8,30.30,WNW,301,2.0,6.0,72,0.00,,OVC044,0.00,VWS V14.01,2013-10-24 16:53:00,
2013-10-24 11:58:00,38.0,29.8,30.30,NW,305,2.0,6.0,72,0.00,,OVC044,0.00,VWS V14.01,2013-10-24 16:58:00,
2013-10-24 12:00:00,37.9,29.7,30.30,North,359,4.0,6.0,72,0.00,,BKN048,0.00,VWS V14.01,2013-10-24 17:00:00,
2013-10-24 12:03:00,38.1,29.9,30.30,North,8,1.0,6.0,72,0.00,,BKN044,0.00,VWS V14.01,2013-10-24 17:03:00,
2013-10-24 12:08:00,39.0,30.1,30.30,NNE,23,1.0,6.0,70,0.00,,BKN044,0.00,VWS V14.01,2013-10-24 17:08:00,
2013-10-24 12:13:00,39.9,30.2,30.30,NNW,347,2.0,6.0,68,0.00,,BKN044,0.00,VWS V14.01,2013-10-24 17:13:00,
2013-10-24 12:18:00,40.5,28.9,30.30,NNE,26,3.0,7.0,63,0.00,,BKN044,0.00,VWS V14.01,2013-10-24 17:18:00,
2013-10-24 12:23:00,40.3,28.3,30.30,NNW,333,3.0,11.0,62,0.00,,BKN044,0.00,VWS V14.01,2013-10-24 17:23:00,
2013-10-24 12:28:00,40.5,29.3,30.30,NE,39,2.0,11.0,64,0.00,,BKN044,0.00,VWS V14.01,2013-10-24 17:28:00,
2013-10-24 12:30:00,40.7,29.5,30.30,North,356,4.0,11.0,64,0.00,,BKN048,0.00,VWS V14.01,2013-10-24 17:30:00,
2013-10-24 12:33:00,40.8,28.4,30.30,NNW,342,3.0,7.0,61,0.00,,BKN044,0.00,VWS V14.01,2013-10-24 17:33:00,
2013-10-24 12:38:00,41.1,28.3,30.30,NNW,347,3.0,10.0,60,0.00,,BKN044,0.00,VWS V14.01,2013-10-24 17:38:00,
2013-10-24 12:43:00,40.9,28.1,30.30,NNE,30,3.0,10.0,60,0.00,,BKN044,0.00,VWS V14.01,2013-10-24 17:43:00,
2013-10-24 12:48:00,40.8,29.2,30.30,NE,36,1.0,10.0,63,0.00,,BKN044,0.00,VWS V14.01,2013-10-24 17:48:00,
2013-10-24 12:53:00,41.1,28.7,30.30,NNW,338,5.0,5.0,61,0.00,,BKN044,0.00,VWS V14.01,2013-10-24 17:53:00,
2013-10-24 12:58:00,40.8,27.2,30.30,North,9,2.0,10.0,58,0.00,,BKN044,0.00,VWS V14.01,2013-10-24 17:58:00,
2013-10-24 13:00:00,40.9,27.7,30.30,NNW,339,6.0,10.0,59,0.00,,SCT050,0.00,VWS V14.01,2013-10-24 18:00:00,
2013-10-24 13:03:00,41.1,27.9,30.29,NNE,32,3.0,6.0,59,0.00,,BKN048,0.00,VWS V14.01,2013-10-24 18:03:00,
2013-10-24 13:08:00,41.4,28.6,30.29,NE,39,3.0,8.0,60,0.00,,BKN048,0.00,VWS V14.01,2013-10-24 18:08:00,
2013-10-24 13:13:00,42.4,30.3,30.29,North,8,4.0,8.0,62,0.00,,BKN048,0.00,VWS V14.01,2013-10-24 18:13:00,
2013-10-24 13:18:00,42.4,28.3,30.29,NNE,29,3.0,9.0,57,0.00,,BKN048,0.00,VWS V14.01,2013-10-24 18:18:00,
2013-10-24 13:23:00,42.1,28.0,30.29,NNE,15,5.0,11.0,57,0.00,,BKN048,0.00,VWS V14.01,2013-10-24 18:23:00,
2013-10-24 13:28:00,41.9,27.4,30.29,North,7,3.0,11.0,56,0.00,,BKN048,0.00,VWS V14.01,2013-10-24 18:28:00,
2013-10-24 13:30:00,42.0,28.7,30.29,NNE,24,7.0,11.0,59,0.00,,SCT050,0.00,VWS V14.01,2013-10-24 18:30:00,
2013-10-24 13:33:00,42.2,28.5,30.29,North,354,8.0,8.0,58,0.00,,BKN048,0.00,VWS V14.01,2013-10-24 18:33:00,
2013-10-24 13:38:00,42.0,27.9,30.29,NNE,16,6.0,13.0,57,0.00,,BKN048,0.00,VWS V14.01,2013-10-24 18:38:00,
2013-10-24 13:43:00,42.2,27.6,30.29,North,6,4.0,13.0,56,0.00,,BKN048,0.00,VWS V14.01,2013-10-24 18:43:00,
2013-10-24 13:48:00,42.4,27.8,30.29,NNW,338,2.0,13.0,56,0.00,,BKN048,0.00,VWS V14.01,2013-10-24 18:48:00,
2013-10-24 13:53:00,42.4,29.1,30.29,NNW,345,3.0,13.0,59,0.00,,BKN048,0.00,VWS V14.01,2013-10-24 18:53:00,
2013-10-24 13:58:00,43.0,29.2,30.29,North,352,2.0,13.0,58,0.00,,BKN048,0.00,VWS V14.01,2013-10-24 18:58:00,
2013-10-24 14:00:00,42.9,28.3,30.29,NNE,16,3.0,13.0,56,0.00,,SCT050,0.00,VWS V14.01,2013-10-24 19:00:00,
2013-10-24 14:03:00,42.9,28.7,30.29,WNW,297,3.0,5.0,57,0.00,,OVC055,0.00,VWS V14.01,2013-10-24 19:03:00,
2013-10-24 14:08:00,42.7,27.7,30.29,NNE,15,4.0,10.0,55,0.00,,OVC055,0.00,VWS V14.01,2013-10-24 19:08:00,
2013-10-24 14:13:00,42.8,28.6,30.29,NNW,340,3.0,10.0,57,0.00,,OVC055,0.00,VWS V14.01,2013-10-24 19:13:00,
2013-10-24 14:18:00,43.9,28.4,30.28,North,4,3.0,12.0,54,0.00,,OVC055,0.00,VWS V14.01,2013-10-24 19:18:00,
2013-10-24 14:23:00,44.4,28.8,30.28,North,349,3.0,12.0,54,0.00,,OVC055,0.00,VWS V14.01,2013-10-24 19:23:00,
2013-10-24 14:28:00,44.4,28.4,30.28,NW,317,3.0,12.0,53,0.00,,OVC055,0.00,VWS V14.01,2013-10-24 19:28:00,
2013-10-24 14:30:00,44.6,28.5,30.28,NW,317,2.0,12.0,53,0.00,,SCT050,0.00,VWS V14.01,2013-10-24 19:30:00,
2013-10-24 14:33:00,44.8,27.8,30.28,NE,52,1.0,5.0,51,0.00,,OVC055,0.00,VWS V14.01,2013-10-24 19:33:00,
2013-10-24 14:38:00,44.2,27.2,30.28,NNE,18,4.0,7.0,51,0.00,,OVC055,0.00,VWS V14.01,2013-10-24 19:38:00,
2013-10-24 14:43:00,43.4,26.5,30.28,North,359,2.0,7.0,51,0.00,,OVC055,0.00,VWS V14.01,2013-10-24 19:43:00,
2013-10-24 14:48:00,43.1,27.6,30.28,NNE,19,5.0,7.0,54,0.00,,OVC055,0.00,VWS V14.01,2013-10-24 19:48:00,
2013-10-24 14:53:00,42.9,27.0,30.28,North,354,4.0,8.0,53,0.00,,OVC055,0.00,VWS V14.01,2013-10-24 19:53:00,
2013-10-24 14:58:00,43.1,27.1,30.28,NNE,15,7.0,10.0,53,0.00,,OVC055,0.00,VWS V14.01,2013-10-24 19:58:00,
2013-10-24 15:00:00,43.1,26.7,30.28,ENE,66,3.0,10.0,52,0.00,,SCT050,0.00,VWS V14.01,2013-10-24 20:00:00,
2013-10-24 15:03:00,43.1,27.6,30.28,NW,315,2.0,6.0,54,0.00,,SCT060,0.00,VWS V14.01,2013-10-24 20:03:00,
2013-10-24 15:08:00,43.1,28.0,30.28,NW,326,2.0,6.0,55,0.00,,SCT060,0.00,VWS V14.01,2013-10-24 20:08:00,
2013-10-24 15:13:00,43.0,27.5,30.28,NW,325,2.0,7.0,54,0.00,,SCT060,0.00,VWS V14.01,2013-10-24 20:13:00,
2013-10-24 15:18:00,42.9,28.3,30.28,NNW,341,2.0,7.0,56,0.00,,SCT060,0.00,VWS V14.01,2013-10-24 20:18:00,
2013-10-24 15:23:00,43.0,28.0,30.28,NNE,21,2.0,7.0,55,0.00,,SCT060,0.00,VWS V14.01,2013-10-24 20:23:00,
2013-10-24 15:28:00,43.9,29.2,30.28,NW,311,1.0,7.0,56,0.00,,SCT060,0.00,VWS V14.01,2013-10-24 20:28:00,
2013-10-24 15:30:00,44.1,29.0,30.28,NNW,336,2.0,7.0,55,0.00,,SCT050,0.00,VWS V14.01,2013-10-24 20:30:00,
2013-10-24 15:33:00,44.3,29.2,30.28,NW,314,2.0,4.0,55,0.00,,SCT060,0.00,VWS V14.01,2013-10-24 20:33:00,
2013-10-24 15:38:00,43.9,27.9,30.28,NNW,333,1.0,5.0,53,0.00,,SCT060,0.00,VWS V14.01,2013-10-24 20:38:00,
2013-10-24 15:43:00,43.6,29.0,30.28,ESE,106,1.0,7.0,56,0.00,,SCT060,0.00,VWS V14.01,2013-10-24 20:43:00,
2013-10-24 15:48:00,43.6,28.5,30.29,NNE,32,4.0,7.0,55,0.00,,SCT060,0.00,VWS V14.01,2013-10-24 20:48:00,
2013-10-24 15:53:00,44.1,29.0,30.28,NNW,346,1.0,8.0,55,0.00,,SCT060,0.00,VWS V14.01,2013-10-24 20:53:00,
2013-10-24 15:58:00,44.8,29.2,30.28,NNE,17,2.0,8.0,54,0.00,,SCT060,0.00,VWS V14.01,2013-10-24 20:58:00,
2013-10-24 16:00:00,44.8,28.3,30.28,NNE,20,4.0,8.0,52,0.00,,SCT050,0.00,VWS V14.01,2013-10-24 21:00:00,
2013-10-24 16:03:00,44.7,28.6,30.28,WNW,298,2.0,7.0,53,0.00,,OVC060,0.00,VWS V14.01,2013-10-24 21:03:00,
2013-10-24 16:08:00,44.4,28.4,30.28,NNW,333,3.0,7.0,53,0.00,,OVC060,0.00,VWS V14.01,2013-10-24 21:08:00,
2013-10-24 16:13:00,44.2,28.6,30.28,NW,308,3.0,7.0,54,0.00,,OVC060,0.00,VWS V14.01,2013-10-24 21:13:00,
2013-10-24 16:18:00,44.8,30.1,30.28,NNW,342,2.0,7.0,56,0.00,,OVC060,0.00,VWS V14.01,2013-10-24 21:18:00,
2013-10-24 16:23:00,45.2,28.2,30.28,NNE,15,3.0,8.0,51,0.00,,OVC060,0.00,VWS V14.01,2013-10-24 21:23:00,
2013-10-24 16:28:00,45.3,28.7,30.28,North,11,6.0,8.0,52,0.00,,OVC060,0.00,VWS V14.01,2013-10-24 21:28:00,
2013-10-24 16:30:00,45.3,29.2,30.28,NNW,331,3.0,8.0,53,0.00,,SCT050,0.00,VWS V14.01,2013-10-24 21:30:00,
2013-10-24 16:33:00,45.4,29.3,30.28,WNW,295,3.0,4.0,53,0.00,,OVC060,0.00,VWS V14.01,2013-10-24 21:33:00,
2013-10-24 16:38:00,44.8,28.7,30.28,NNE,20,2.0,5.0,53,0.00,,OVC060,0.00,VWS V14.01,2013-10-24 21:38:00,
2013-10-24 16:43:00,44.8,28.7,30.28,NE,37,4.0,7.0,53,0.00,,OVC060,0.00,VWS V14.01,2013-10-24 21:43:00,
2013-10-24 16:48:00,44.3,28.7,30.29,NW,325,1.0,7.0,54,0.00,,OVC060,0.00,VWS V14.01,2013-10-24 21:48:00,
2013-10-24 16:53:00,44.3,29.6,30.29,NNE,30,3.0,7.0,56,0.00,,OVC060,0.00,VWS V14.01,2013-10-24 21:53:00,
2013-10-24 16:58:00,44.6,29.9,30.29,NNW,347,2.0,7.0,56,0.00,,OVC060,0.00,VWS V14.01,2013-10-24 21:58:00,
2013-10-24 17:00:00,44.7,29.5,30.29,NNE,18,1.0,7.0,55,0.00,,SCT050,0.00,VWS V14.01,2013-10-24 22:00:00,
2013-10-24 17:03:00,44.8,30.1,30.29,NE,47,1.0,3.0,56,0.00,,BKN060,0.00,VWS V14.01,2013-10-24 22:03:00,
2013-10-24 17:08:00,44.9,30.2,30.29,NNE,15,2.0,3.0,56,0.00,,BKN060,0.00,VWS V14.01,2013-10-24 22:08:00,
2013-10-24 17:13:00,44.9,29.3,30.29,NNE,16,2.0,7.0,54,0.00,,BKN060,0.00,VWS V14.01,2013-10-24 22:13:00,
2013-10-24 17:18:00,44.6,28.5,30.29,NNE,13,3.0,8.0,53,0.00,,BKN060,0.00,VWS V14.01,2013-10-24 22:18:00,
2013-10-24 17:23:00,44.3,28.7,30.29,NNE,29,4.0,8.0,54,0.00,,BKN060,0.00,VWS V14.01,2013-10-24 22:23:00,
2013-10-24 17:28:00,44.1,29.0,30.29,NE,42,2.0,8.0,55,0.00,,BKN060,0.00,VWS V14.01,2013-10-24 22:28:00,
2013-10-24 17:30:00,44.0,28.9,30.29,NNE,17,2.0,8.0,55,0.00,,SCT050,0.00,VWS V14.01,2013-10-24 22:30:00,
2013-10-24 17:33:00,43.9,28.8,30.29,NNE,17,3.0,6.0,55,0.00,,BKN060,0.00,VWS V14.01,2013-10-24 22:33:00,
2013-10-24 17:38:00,43.7,29.0,30.29,NNE,18,1.0,8.0,56,0.00,,BKN060,0.00,VWS V14.01,2013-10-24 22:38:00,
2013-10-24 17:43:00,43.6,29.4,30.29,NNE,16,3.0,8.0,57,0.00,,BKN060,0.00,VWS V14.01,2013-10-24 22:43:00,
2013-10-24 17:48:00,43.2,28.6,30.29,NNE,29,2.0,8.0,56,0.00,,BKN060,0.00,VWS V14.01,2013-10-24 22:48:00,
2013-10-24 17:53:00,42.8,29.1,30.29,NNE,16,1.0,8.0,58,0.00,,BKN060,0.00,VWS V14.01,2013-10-24 22:53:00,
2013-10-24 17:58:00,42.4,29.1,30.29,NNE,31,0.0,8.0,59,0.00,,BKN060,0.00,VWS V14.01,2013-10-24 22:58:00,
2013-10-24 18:00:00,42.3,28.6,30.29,North,353,1.0,8.0,58,0.00,,SCT050,0.00,VWS V14.01,2013-10-24 23:00:00,
2013-10-24 18:03:00,42.2,28.9,30.29,NNE,20,1.0,2.0,59,0.00,,CLR,0.00,VWS V14.01,2013-10-24 23:03:00,
2013-10-24 18:08:00,41.8,29.0,30.30,NNE,18,1.0,2.0,60,0.00,,CLR,0.00,VWS V14.01,2013-10-24 23:08:00,
2013-10-24 18:13:00,41.5,29.1,30.29,North,9,0.0,2.0,61,0.00,,CLR,0.00,VWS V14.01,2013-10-24 23:13:00,
2013-10-24 18:18:00,41.1,29.1,30.30,North,5,0.0,2.0,62,0.00,,CLR,0.00,VWS V14.01,2013-10-24 23:18:00,
2013-10-24 18:23:00,40.7,29.1,30.30,North,5,0.0,2.0,63,0.00,,CLR,0.00,VWS V14.01,2013-10-24 23:23:00,
2013-10-24 18:28:00,40.2,29.0,30.30,North,6,0.0,2.0,64,0.00,,CLR,0.00,VWS V14.01,2013-10-24 23:28:00,
2013-10-24 18:30:00,40.0,29.2,30.30,North,6,0.0,2.0,65,0.00,,SCT050,0.00,VWS V14.01,2013-10-24 23:30:00,
2013-10-24 18:33:00,39.7,28.9,30.30,North,6,0.0,0.0,65,0.00,,CLR,0.00,VWS V14.01,2013-10-24 23:33:00,
2013-10-24 18:38:00,39.3,28.9,30.30,North,5,0.0,0.0,66,0.00,,CLR,0.00,VWS V14.01,2013-10-24 23:38:00,
2013-10-24 18:43:00,38.9,28.9,30.30,North,5,0.0,0.0,67,0.00,,CLR,0.00,VWS V14.01,2013-10-24 23:43:00,
2013-10-24 18:48:00,38.6,29.0,30.30,North,5,0.0,0.0,68,0.00,,CLR,0.00,VWS V14.01,2013-10-24 23:48:00,
2013-10-24 18:53:00,38.4,29.1,30.30,North,5,0.0,0.0,69,0.00,,CLR,0.00,VWS V14.01,2013-10-24 23:53:00,
2013-10-24 18:58:00,38.2,29.3,30.30,North,5,0.0,0.0,70,0.00,,CLR,0.00,VWS V14.01,2013-10-24 23:58:00,
2013-10-24 19:00:00,38.1,29.2,30.31,North,5,0.0,0.0,70,0.00,,SCT050,0.00,VWS V14.01,2013-10-25 00:00:00,
2013-10-24 19:03:00,38.1,28.8,30.31,North,5,0.0,0.0,69,0.00,,CLR,0.00,VWS V14.01,2013-10-25 00:03:00,
2013-10-24 19:08:00,37.6,28.7,30.31,North,6,0.0,0.0,70,0.00,,CLR,0.00,VWS V14.01,2013-10-25 00:08:00,
2013-10-24 19:13:00,37.2,29.0,30.31,North,5,0.0,0.0,72,0.00,,CLR,0.00,VWS V14.01,2013-10-25 00:13:00,
2013-10-24 19:18:00,37.2,29.4,30.31,North,5,0.0,0.0,73,0.00,,CLR,0.00,VWS V14.01,2013-10-25 00:18:00,
2013-10-24 19:23:00,37.1,29.3,30.31,North,5,0.0,0.0,73,0.00,,CLR,0.00,VWS V14.01,2013-10-25 00:23:00,
2013-10-24 19:28:00,37.0,29.2,30.31,North,5,0.0,0.0,73,0.00,,CLR,0.00,VWS V14.01,2013-10-25 00:28:00,
2013-10-24 19:30:00,36.9,29.1,30.31,North,5,0.0,0.0,73,0.00,,SCT050,0.00,VWS V14.01,2013-10-25 00:30:00,
2013-10-24 19:33:00,36.9,29.1,30.31,North,5,0.0,0.0,73,0.00,,CLR,0.00,VWS V14.01,2013-10-25 00:33:00,
2013-10-24 19:38:00,36.8,29.6,30.31,North,5,0.0,0.0,75,0.00,,CLR,0.00,VWS V14.01,2013-10-25 00:38:00,
2013-10-24 19:43:00,36.7,29.5,30.31,North,5,0.0,0.0,75,0.00,,CLR,0.00,VWS V14.01,2013-10-25 00:43:00,
2013-10-24 19:48:00,36.8,29.6,30.32,NNW,340,0.0,1.0,75,0.00,,CLR,0.00,VWS V14.01,2013-10-25 00:48:00,
2013-10-24 19:53:00,36.7,29.9,30.32,NNW,340,0.0,1.0,76,0.00,,CLR,0.00,VWS V14.01,2013-10-25 00:53:00,
2013-10-24 19:58:00,36.3,29.5,30.32,NNW,340,0.0,1.0,76,0.00,,CLR,0.00,VWS V14.01,2013-10-25 00:58:00,
2013-10-24 20:00:00,36.2,30.0,30.32,NNW,340,0.0,1.0,78,0.00,,SCT050,0.00,VWS V14.01,2013-10-25 01:00:00,
2013-10-24 20:03:00,36.2,29.7,30.32,NNW,340,0.0,0.0,77,0.00,,BKN070,0.00,VWS V14.01,2013-10-25 01:03:00,
2013-10-24 20:08:00,36.5,29.7,30.32,NNW,328,0.0,1.0,76,0.00,,BKN070,0.00,VWS V14.01,2013-10-25 01:08:00,
2013-10-24 20:13:00,36.6,29.4,30.32,NNW,329,0.0,1.0,75,0.00,,BKN070,0.00,VWS V14.01,2013-10-25 01:13:00,
2013-10-24 20:18:00,36.6,29.8,30.32,NNW,329,0.0,1.0,76,0.00,,BKN070,0.00,VWS V14.01,2013-10-25 01:18:00,
2013-10-24 20:23:00,36.5,29.7,30.32,NNW,328,0.0,1.0,76,0.00,,BKN070,0.00,VWS V14.01,2013-10-25 01:23:00,
2013-10-24 20:28:00,35.9,29.4,30.32,WNW,294,0.0,1.0,77,0.00,,BKN070,0.00,VWS V14.01,2013-10-25 01:28:00,
2013-10-24 20:30:00,35.8,29.3,30.32,WNW,294,0.0,1.0,77,0.00,,SCT050,0.00,VWS V14.01,2013-10-25 01:30:00,
2013-10-24 20:33:00,35.7,29.2,30.32,WNW,294,0.0,0.0,77,0.00,,BKN070,0.00,VWS V14.01,2013-10-25 01:33:00,
2013-10-24 20:38:00,35.6,29.7,30.32,West,281,1.0,1.0,79,0.00,,BKN070,0.00,VWS V14.01,2013-10-25 01:38:00,
2013-10-24 20:43:00,35.7,29.8,30.32,West,270,0.0,1.0,79,0.00,,BKN070,0.00,VWS V14.01,2013-10-25 01:43:00,
2013-10-24 20:48:00,35.8,29.3,30.32,West,270,0.0,1.0,77,0.00,,BKN070,0.00,VWS V14.01,2013-10-25 01:48:00,
2013-10-24 20:53:00,35.7,28.9,30.32,West,270,0.0,1.0,76,0.00,,BKN070,0.00,VWS V14.01,2013-10-25 01:53:00,
2013-10-24 20:58:00,35.9,29.1,30.32,West,272,1.0,1.0,76,0.00,,BKN070,0.00,VWS V14.01,2013-10-25 01:58:00,
2013-10-24 21:00:00,35.9,28.8,30.32,West,272,0.0,1.0,75,0.00,,SCT050,0.00,VWS V14.01,2013-10-25 02:00:00,
2013-10-24 21:03:00,35.9,28.8,30.32,West,269,0.0,0.0,75,0.00,,BKN065,0.00,VWS V14.01,2013-10-25 02:03:00,
2013-10-24 21:08:00,35.9,28.8,30.32,West,276,0.0,1.0,75,0.00,,BKN065,0.00,VWS V14.01,2013-10-25 02:08:00,
2013-10-24 21:13:00,35.7,28.2,30.32,WNW,283,1.0,2.0,74,0.00,,BKN065,0.00,VWS V14.01,2013-10-25 02:13:00,
2013-10-24 21:18:00,35.5,28.4,30.32,West,280,0.0,2.0,75,0.00,,BKN065,0.00,VWS V14.01,2013-10-25 02:18:00,
2013-10-24 21:23:00,35.2,28.1,30.32,West,280,0.0,2.0,75,0.00,,BKN065,0.00,VWS V14.01,2013-10-25 02:23:00,
2013-10-24 21:28:00,35.1,28.3,30.32,West,280,0.0,2.0,76,0.00,,BKN065,0.00,VWS V14.01,2013-10-25 02:28:00,
2013-10-24 21:30:00,35.0,28.2,30.32,West,280,0.0,2.0,76,0.00,,SCT050,0.00,VWS V14.01,2013-10-25 02:30:00,
2013-10-24 21:33:00,35.0,28.2,30.32,West,269,1.0,1.0,76,0.00,,BKN065,0.00,VWS V14.01,2013-10-25 02:33:00,
2013-10-24 21:38:00,34.9,28.1,30.32,WNW,298,0.0,1.0,76,0.00,,BKN065,0.00,VWS V14.01,2013-10-25 02:38:00,
2013-10-24 21:43:00,34.8,28.0,30.32,West,281,1.0,2.0,76,0.00,,BKN065,0.00,VWS V14.01,2013-10-25 02:43:00,
2013-10-24 21:48:00,34.7,28.2,30.32,WNW,283,0.0,2.0,77,0.00,,BKN065,0.00,VWS V14.01,2013-10-25 02:48:00,
2013-10-24 21:53:00,34.7,27.9,30.32,West,280,1.0,2.0,76,0.00,,BKN065,0.00,VWS V14.01,2013-10-25 02:53:00,
2013-10-24 21:58:00,34.5,28.0,30.33,West,271,0.0,2.0,77,0.00,,BKN065,0.00,VWS V14.01,2013-10-25 02:58:00,
2013-10-24 22:00:00,34.4,28.0,30.33,West,277,1.0,2.0,77,0.00,,SCT050,0.00,VWS V14.01,2013-10-25 03:00:00,
2013-10-24 22:03:00,34.3,27.9,30.33,West,277,0.0,1.0,77,0.00,,SCT060,0.00,VWS V14.01,2013-10-25 03:03:00,
2013-10-24 22:08:00,34.1,27.7,30.33,West,277,0.0,1.0,77,0.00,,SCT060,0.00,VWS V14.01,2013-10-25 03:08:00,
2013-10-24 22:30:00,35.0,28.2,30.32,West,280,0.0,2.0,76,0.00,,,0.00,VWS V14.01,2013-10-25 03:30:00,
2013-10-24 23:00:00,34.4,28.0,30.33,West,277,1.0,2.0,77,0.00,,,0.00,VWS V14.01,2013-10-25 04:00:00,